Orbital Elements at Epoch 2459000.5 (2020-May-31.0) TDB
Reference: JPL 25 (heliocentric ecliptic J2000)
Element | Value | Uncertainty (1-sigma) | Units |
e | .1412462129656674 | 3.5006e-08 | |
a | 2.338463531654315 | 9.3752e-09 | au |
q | 2.008164413649823 | 8.0501e-08 | au |
i | 6.38541973163267 | 3.7847e-06 | deg |
node | 100.2436409450675 | 3.5825e-05 | deg |
peri | 190.3926322139546 | 3.8614e-05 | deg |
M | 176.2892084556029 | 1.6241e-05 | deg |
tp | 2458360.886596492214 (2018-Aug-30.38659649) | 5.709e-05 | TDB |
period | 1306.153832557439 3.58 | 7.8548e-06 2.151e-08 | d yr |
n | .2756183774273532 | 1.6575e-09 | deg/d |
Q | 2.668762649658807 | 1.0699e-08 | au |
|
| | Orbit Determination Parameters
Additional Information
|